Other Public Products
Issued by NWS Charleston, SC

Current Version | Previous Version | Text Only | Print | Product List | Glossary Off
Versions: 1 2 3 4 5 6 7 8 9 10 11 12 13 14 15 16 17 18 19 20 21 22 23 24 25 26 27 28 29 30 31 32 33 34 35 36 37 38 39 40 41 42 43 44 45 46 47 48 49 50
000 FPUS82 KCHS 261512 OPUCHS TEST...KCHS/KSAV Gateway Observations...TEST National Weather Service Charleston SC 1100 AM EDT THU APR 26 2018 NOTE: "fair" indicates few or no clouds below 12,000 feet with no significant weather and/or obstructions to visibility. SCZ050-WAZ558-NCZ071-TXZ119-213-PAZ071-DCZ001-FLZ074-172-MI076- NYZ176-178-MAZ016-IL014-TNZ027-NJZ106-GAZ044-MD014-261600- ...Gateway Observations for Charleston International... CITY SKY/WX TMP DP RH WIND PRES REMARKS Chas Airport FAIR 74 57 55 S12 29.88R Seattle SUNNY 59 43 55 N7 30.03 Charlotte PTSUNNY 65 50 58 E8 29.91 Dallas DFW MOSUNNY 56 45 66 N8 30.04 Dallas Love MOSUNNY 57 46 66 N7 30.06 Philladelphia FAIR 57 39 51 W9 29.82R Wash National PTSUNNY 61 38 42 W13 29.88 Baltimore PTSUNNY 59 41 51 W14 29.86R Miami FAIR 76 62 62 VRB5 29.98 Detroit FAIR 52 35 52 VRB3 29.95 Newark FAIR 61 42 49 NW16 29.75 Laguardia FAIR 59 40 49 W25 29.74 J F K FAIR 60 42 51 W16G25 29.74R Boston Logan PTSUNNY 61 56 83 W9G20 29.58R Ft. Lauderdale FAIR 77 64 64 W6 29.97R Chicago O`Hare PTSUNNY 54 30 40 CALM 29.95 Chicago Midway FAIR 53 29 39 CALM 29.97 Houston Bush FAIR 63 47 55 N12 30.05S Houston Hobby FAIR 62 47 57 N13 30.05 Nashville LGT RAIN 59 55 87 SE6 29.89 FOG Atlanta PTSUNNY 58 53 84 NW10 29.91 $$ GAZ044-118-TXZ119-213-NCZ071-DCZ001-MDZ014-506-PAZ021-071-NJZ106- NYZ176-178-MAZ106-OHZ011-021-055-MIZ076-KYZ091-ILZ014-INZ047- MNZ060-ONZ431-261600- ...Gateway Observations for Savannah International... CITY SKY/WX TMP DP RH WIND PRES REMARKS Savannah Arpt CLOUDY 72 54 53 SW9 29.89S Atlanta PTSUNNY 58 53 84 NW10 29.91 Charlotte PTSUNNY 65 50 58 E8 29.91 Dallas DFW MOSUNNY 56 45 66 N8 30.04 Houston Bush FAIR 63 47 55 N12 30.05S Wash National PTSUNNY 61 38 42 W13 29.88 Wash Dulles FAIR 59 39 47 W14G20 29.89 Baltimore PTSUNNY 59 41 51 W14 29.86R Philadelphia FAIR 57 39 51 W9 29.82R Newark FAIR 61 42 49 NW16 29.75 Laguardia FAIR 59 40 49 W25 29.74 J F K FAIR 60 42 51 W16G25 29.74R Boston PTSUNNY 61 56 83 W9G20 29.58R Pittsburg FAIR 49 35 58 W5 29.94 Akron FAIR 48 35 60 CALM 29.95 Cleveland FAIR 50 37 61 CALM 29.98 Cincinnati FAIR 56 39 53 NE5 29.93 Columbus FAIR 54 44 69 SE7 29.95R Detroit FAIR 52 35 52 VRB3 29.95 Chicago O`Hare PTSUNNY 54 30 40 CALM 29.95 Minneapolis PTSUNNY 56 33 42 W14G23 29.85 Indianapolis FAIR 50 34 54 CALM 29.96S Toronto Canada MOSUNNY 48 36 61 NW13 29.85R $$

USA.gov is the U.S. government's official web portal to all federal, state and local government web resources and services.